Theta_e
297 294 294 299 311 313 323 333 330 330 335 334 331 337 334 338 345 347 346 348 355 361 361 359 357 357 358 358 357 355 354 354
295 294 295 306 312 316 323 328 330 331 328 336 343 338 338 341 344 342 343 346 357 360 360 359 358 358 359 357 357 356 354 354
290 291 299 311 315 319 322 326 328 331 328 331 342 338 339 341 342 340 342 347 352 359 359 358 357 357 357 357 356 356 355 354
289 292 308 315 317 323 323 327 330 329 330 331 340 337 342 342 340 344 343 346 349 356 358 358 357 357 356 355 355 354 354 354
293 292 307 316 321 321 321 325 328 334 327 332 339 342 345 341 344 346 346 345 347 350 353 356 356 356 355 355 355 354 351 349
289 292 296 318 320 321 324 321 335 338 327 327 338 345 343 343 343 343 346 346 344 347 348 348 351 357 357 356 354 349 345 344
292 293 298 317 315 320 323 322 329 334 335 338 344 343 340 337 338 341 345 343 344 345 344 345 347 350 354 352 348 344 341 339
298 301 310 316 316 319 319 322 323 329 338 343 343 340 337 334 333 336 338 340 340 340 340 341 348 344 338 340 332 325 324 324
300 310 316 317 316 320 318 319 324 327 335 340 339 339 337 333 331 333 336 338 339 337 338 337 340 336 333 334 328 322 325 324
300 304 315 316 317 317 320 321 328 333 339 340 338 337 337 333 331 333 336 337 338 338 336 334 334 332 332 332 327 322 322 324
300 300 309 314 315 316 319 327 332 335 338 339 339 338 339 337 335 334 335 337 338 338 335 332 330 330 328 328 327 324 324 324
298 296 299 308 312 319 321 331 331 333 334 338 339 338 336 333 331 331 336 334 334 335 335 327 325 323 322 325 323 323 325 325
298 299 305 315 311 317 322 329 328 330 333 337 338 331 329 333 330 330 334 332 326 331 331 323 322 320 320 322 323 324 324 322
296 300 310 310 304 315 323 327 325 327 328 328 326 327 328 331 329 327 329 322 322 327 323 320 319 321 324 325 323 321 318 317
297 299 305 301 299 312 322 324 324 325 325 325 323 318 321 323 326 324 325 320 320 320 317 318 321 325 323 320 319 317 316 315
292 296 297 297 300 304 319 323 324 324 320 319 319 321 320 321 323 323 320 319 319 320 319 322 325 323 319 316 315 315 315 313
295 298 297 295 295 300 313 318 318 317 317 313 315 317 317 318 318 319 319 319 320 321 323 326 326 322 320 316 313 312 314 311
296 299 296 294 297 298 310 317 320 318 317 315 311 312 314 316 318 319 321 320 319 318 318 318 319 318 319 316 313 311 311 308
295 297 296 295 294 295 301 306 311 312 314 314 311 309 313 316 319 320 317 315 313 312 311 311 312 313 313 314 313 310 307 304
297 294 290 294 287 292 296 301 304 305 308 311 311 310 313 319 317 315 313 312 310 310 311 310 310 310 309 308 310 307 302 301
Wind_Speed
6 3 4 4 6 5 2 8 3 4 2 2 1 3 5 5 9 8 6 5 4 9 8 10 11 10 9 9 8 8 8 7
6 1 3 2 7 5 4 2 1 4 6 4 1 4 4 9 9 8 6 6 7 9 9 10 10 10 9 9 8 7 7 6
3 4 4 3 2 6 5 4 4 3 2 3 5 9 10 10 7 7 6 5 6 9 10 10 11 10 9 8 7 6 6 5
0 4 3 2 4 6 3 3 4 6 5 1 3 9 7 9 8 6 6 6 6 9 9 10 10 9 8 7 7 6 4 3
2 3 4 2 5 4 3 4 2 8 4 1 3 5 7 7 8 7 6 6 5 6 8 9 8 8 8 7 7 6 3 2
3 4 5 5 4 5 5 2 3 4 6 6 5 7 9 6 5 6 4 5 5 5 5 6 5 8 7 7 7 5 4 6
4 5 4 4 4 3 3 4 1 5 5 6 12 10 8 5 4 3 4 5 5 5 5 5 5 6 7 8 6 6 5 6
4 5 5 5 5 9 5 6 3 3 4 13 14 12 11 8 7 6 5 5 5 4 5 5 4 5 5 3 3 2 2 2
4 5 8 9 5 6 7 7 9 12 14 15 12 12 11 10 10 10 6 4 6 6 5 6 5 4 2 2 1 0 2 2
6 6 7 10 8 7 10 8 10 9 16 16 15 14 13 11 11 9 8 8 7 7 6 6 3 3 4 3 2 2 3 2
6 6 7 7 9 7 11 5 9 11 17 17 15 13 10 9 7 7 9 9 8 8 6 5 5 4 4 4 3 2 1 2
3 4 6 10 3 6 8 9 10 16 16 15 16 14 7 7 10 11 11 11 9 9 9 6 6 6 4 3 1 2 3 4
3 3 3 10 2 14 3 10 11 11 14 15 14 10 16 15 14 15 12 11 11 12 6 7 6 4 3 3 4 4 5 6
4 2 3 5 8 11 6 12 10 10 11 12 12 14 13 13 11 11 10 11 8 7 7 5 4 3 4 5 6 5 5 6
8 6 4 2 5 11 8 8 9 12 10 12 11 9 10 13 14 14 12 9 7 6 8 7 6 5 7 8 7 5 6 5
4 3 2 4 10 5 8 13 18 16 8 10 12 21 13 11 12 5 3 5 6 4 8 7 6 7 6 7 6 5 6 6
6 5 4 3 5 8 7 7 9 8 9 10 16 5 4 5 6 7 7 8 6 8 5 4 2 3 3 4 4 6 6 8
6 3 1 4 7 5 6 18 17 13 8 9 4 5 7 8 6 5 8 8 9 9 8 5 3 3 3 3 4 4 4 5
6 4 4 5 8 7 2 4 3 0 3 6 11 5 7 8 8 9 11 12 12 11 10 9 6 3 4 4 2 3 6 4
3 3 1 2 4 4 5 2 5 6 9 10 9 5 7 10 11 12 13 14 14 13 11 10 8 9 10 4 4 4 3 3
Wind_Direction
95 122 165 205 232 138 252 148 25 105 101 80 86 30 135 117 122 107 101 104 130 116 114 112 110 108 103 102 103 106 107 105
79 244 254 184 230 168 122 354 26 95 66 55 223 140 127 119 120 117 129 136 134 128 125 123 119 112 106 103 104 103 104 109
58 290 269 240 201 158 151 156 119 84 88 62 7 97 114 119 119 129 136 139 129 133 131 128 125 123 123 125 124 125 126 134
154 277 288 312 126 140 125 91 114 76 84 37 134 131 142 128 131 130 140 144 148 143 139 140 138 136 136 134 129 123 122 149
173 261 324 203 120 121 108 97 104 132 102 182 221 165 129 123 131 143 154 148 147 154 155 145 141 139 139 136 133 122 114 74
247 203 253 145 110 121 109 205 100 130 178 192 196 151 113 119 126 137 159 156 152 162 151 150 148 147 141 140 143 143 124 107
207 167 242 147 125 131 127 112 176 191 163 170 139 133 117 114 104 133 166 168 170 169 164 153 152 157 149 148 147 125 106 110
211 189 188 186 132 149 138 149 238 168 92 122 152 153 159 167 168 178 175 192 185 181 173 164 163 149 145 131 116 135 143 138
235 205 162 162 167 173 128 188 210 180 159 156 161 171 179 179 178 179 182 177 186 193 186 180 166 152 142 129 135 226 216 182
252 204 147 168 141 193 186 193 188 160 163 162 172 185 189 185 177 176 179 192 193 192 190 195 166 166 164 164 176 216 244 250
247 209 194 147 189 194 219 149 148 146 165 177 185 190 195 193 175 172 190 198 200 185 196 199 189 178 174 192 189 219 342 20
275 239 198 155 228 150 232 148 158 164 171 187 189 191 183 186 190 187 195 202 195 203 193 181 194 192 189 167 134 57 49 41
54 160 128 124 97 224 166 155 163 176 179 189 196 186 198 198 195 189 204 200 202 207 181 180 195 188 111 93 85 66 67 55
301 341 169 74 238 254 194 164 171 185 187 191 204 205 200 202 205 204 195 195 203 200 163 147 156 107 85 76 74 66 55 41
325 0 126 70 251 257 166 174 186 207 198 202 209 227 202 201 203 204 198 189 184 155 130 124 112 84 77 73 69 59 51 43
272 260 100 186 250 250 191 179 197 204 201 206 212 223 207 201 210 184 117 73 83 91 108 116 110 108 96 89 78 64 52 45
246 248 221 228 256 254 211 204 201 205 207 217 224 216 150 153 121 107 80 90 93 97 82 100 111 117 97 89 73 56 43 35
286 316 156 10 301 297 212 215 202 203 226 242 281 177 145 144 117 98 101 87 78 75 66 57 58 52 82 100 92 96 56 28
207 331 36 8 325 346 346 62 78 131 250 236 227 180 152 136 113 93 80 80 75 66 60 52 52 71 60 57 59 27 18 358
230 103 194 51 275 328 353 267 233 6 342 317 299 166 135 106 79 81 79 74 68 62 56 48 34 58 65 62 16 355 346 307